Location: Hackbridge
(51.3833°N, 0.1500°W)
Time: 21:06:02
(UTC+00:00)

Cosmos 2082 Rocket - Pass Details

Date: 13 October 2019
Orbit: 832 x 855 km, 71.0° (Epoch: 16 November)

Event Time Altitude Azimuth Distance (km) Brightness Sun altitude
Rises 18:07:15 0° 330° (NNW) 3,437 5.8 -9.3°
Reaches altitude 10° 18:10:14 10° 344° (NNW) 2,498 4.9 -9.8°
Maximum altitude 18:14:49 24° 38° (NE) 1,707 3.5 -10.5°
Enters shadow 18:18:19 14° 83° (E) 2,200 3.7 -11.0°
